sat.trackr.live / text

‹ back to catalog

JUGNU

NORAD 37839 · 2011-058B

PAYLOAD ACTIVE UNKNOWN

§ Identity

Operator
Country
IND
Launch date
2011-10-12
Launch site
SRILR
Launch vehicle
Mass (kg)
RCS (m²)
0.15

Purposes: comms

External: N2YO · Heavens-Above · Gunter

§ Orbital elements

Epoch: 2026-09-18T23:21:22.205088Z

Period
101.85 min
Inclination
19.9601°
Eccentricity
0.0018563
Mean motion
14.13798990 rev/d
Perigee alt
833.0 km
Apogee alt
859.8 km
Semi-major
7,224.5 km
B*
5.7931e-5
RAAN
98.6261°
Arg perigee
32.4006°
Mean anomaly
124.0056°
Rev number
77,231

§ Raw data

JUGNU1 37839U 11058B   26261.97317367  .00000378  00000+0  57931-4 0  99912 37839  19.9601  98.6261 0018563  32.4006 124.0056 14.13798990772317

JSON: /api/v1/satellites/37839 · /tle

For live sub-satellite position, see the globe view (requires WebGL).

§ Visibility from observer

Set your observer location to see the next 7 days of passes ≥ 10°. The values pass through the URL so the page stays shareable.

No JS? Fill the form by hand. The geolocation button needs JavaScript.

§ Radio — SatNOGS DB

ModeDescriptionDownlinkUplink
CW CW Beacon 437.275 MHz
FSK TLM 437.505 MHz

2 transmitters · refreshed weekly from db.satnogs.org